EW0890 Weather Reports


Display with metric or nautical units.
time (UTC)temp
F
wind
direction
speed
MPH
gust
MPH
rain 1hr
in
rain 24hr
in
rain mn
in
humidity
%
barometer
mb
20260831094609 70 48 1.0 3.0 0.00 0.07 0.00 82 1015.1
20260831094530 70 285 1.0 3.0 0.00 0.07 0.00 82 1015.1
20260831094012 70 290 1.0 3.0 0.00 0.07 0.00 82 1015.1
20260831093511 70 242 1.0 3.0 0.00 0.07 0.00 82 1015.1
20260831093155 70 288 1.0 4.0 0.00 0.07 0.00 82 1015.1
20260831093026 70 307 1.0 4.0 0.00 0.07 0.00 82 1015.1
20260831092514 70 261 1.0 4.0 0.00 0.07 0.00 82 1015.2
20260831092014 70 274 2.0 3.0 0.00 0.07 0.00 82 1015.2
20260831091606 70 293 1.0 3.0 0.00 0.07 0.00 82 1015.2
20260831091508 70 281 1.0 3.0 0.00 0.07 0.00 82 1015.2
20260831091003 70 282 1.0 3.0 0.00 0.07 0.00 81 1015.3
20260831090506 70 313 1.0 3.0 0.00 0.07 0.00 81 1015.2
20260831090107 70 46 1.0 3.0 0.00 0.07 0.00 81 1015.3
20260831090014 70 259 1.0 3.0 0.00 0.07 0.00 81 1015.2
20260831085504 70 264 1.0 3.0 0.00 0.07 0.00 81 1015.2
20260831085008 70 288 1.0 3.0 0.00 0.07 0.00 82 1015.2
20260831084653 70 232 1.0 3.0 0.00 0.07 0.00 82 1015.3
20260831084518 70 288 1.0 3.0 0.00 0.07 0.00 82 1015.2
20260831084007 70 205 1.0 3.0 0.00 0.07 0.00 82 1015.2
20260831083511 71 238 1.0 3.0 0.00 0.07 0.00 82 1015.1
20260831083110 71 214 1.0 2.0 0.00 0.07 0.00 81 1015.1
20260831083027 71 249 1.0 2.0 0.00 0.07 0.00 81 1015.1
20260831082510 71 314 0.0 2.0 0.00 0.07 0.00 81 1015.0
20260831082016 71 224 1.0 3.0 0.00 0.07 0.00 81 1015.1
20260831081605 71 116 0.0 3.0 0.00 0.07 0.00 80 1015.1
20260831081530 71 250 0.0 3.0 0.00 0.07 0.00 80 1015.0
20260831081016 71 248 0.0 2.0 0.00 0.07 0.00 80 1015.0
20260831080519 71 306 0.0 2.0 0.00 0.07 0.00 81 1015.0
20260831080125 71 227 0.0 2.0 0.00 0.07 0.00 81 1015.0
20260831080022 71 245 0.0 2.0 0.00 0.07 0.00 81 1015.0
20260831075503 71 50 0.0 2.0 0.00 0.07 0.00 81 1015.0
20260831075004 71 293 0.0 2.0 0.00 0.07 0.00 81 1015.0
20260831074607 71 257 1.0 3.0 0.00 0.07 0.00 81 1015.0
20260831074515 71 355 1.0 3.0 0.00 0.07 0.00 81 1015.0
20260831074006 71 274 1.0 3.0 0.00 0.07 0.00 81 1015.1
20260831073507 71 37 0.0 2.0 0.00 0.07 0.00 81 1015.1
20260831073104 71 266 0.0 2.0 0.00 0.07 0.00 82 1015.2
20260831073030 71 266 0.0 2.0 0.00 0.07 0.00 82 1015.2
20260831072510 71 301 0.0 1.0 0.00 0.07 0.00 81 1015.3
20260831072016 71 283 0.0 1.0 0.00 0.07 0.00 81 1015.3
20260831071612 71 168 0.0 2.0 0.00 0.07 0.00 81 1015.4
20260831071527 71 359 0.0 2.0 0.00 0.07 0.00 81 1015.3
20260831071015 71 239 0.0 2.0 0.00 0.07 0.00 80 1015.4
20260831070511 71 152 0.0 2.0 0.00 0.07 0.00 80 1015.4
20260831070107 71 270 0.0 2.0 0.00 0.07 0.00 80 1015.4
20260831070032 71 300 0.0 2.0 0.00 0.07 0.00 80 1015.4
20260831065517 71 243 1.0 2.0 0.00 0.07 0.00 80 1015.4
20260831065015 71 257 1.0 2.0 0.00 0.07 0.00 79 1015.4
20260831064610 71 176 0.0 1.0 0.00 0.07 0.00 79 1015.5
20260831064510 71 282 0.0 1.0 0.00 0.07 0.00 79 1015.5
20260831064007 72 285 0.0 1.0 0.00 0.07 0.00 79 1015.5
20260831063504 72 278 0.0 1.0 0.00 0.07 0.00 79 1015.5
20260831063113 72 253 0.0 3.0 0.00 0.07 0.00 79 1015.6
20260831063021 72 270 0.0 3.0 0.00 0.07 0.00 79 1015.6
20260831062510 72 272 0.0 3.0 0.00 0.07 0.00 79 1015.6
20260831062013 72 160 0.0 3.0 0.00 0.07 0.00 78 1015.5
20260831061605 72 0 0.0 3.0 0.00 0.07 0.00 78 1015.7
20260831061525 72 144 0.0 3.0 0.00 0.07 0.00 78 1015.5
20260831061013 72 331 0.0 3.0 0.00 0.07 0.00 78 1015.5
20260831060512 72 167 0.0 3.0 0.00 0.07 0.00 77 1015.5
20260831060127 72 343 0.0 2.0 0.00 0.07 0.00 77 1015.6
20260831060033 72 122 0.0 2.0 0.00 0.07 0.00 77 1015.5
20260831055516 72 176 0.0 2.0 0.00 0.07 0.00 77 1015.6
20260831055016 72 226 0.0 1.0 0.00 0.07 0.00 77 1015.6
20260831054603 73 250 0.0 1.0 0.00 0.07 0.00 77 1015.7
20260831054531 73 273 0.0 1.0 0.00 0.07 0.00 77 1015.6
20260831054017 73 178 0.0 1.0 0.00 0.07 0.00 77 1015.7
20260831053516 72 238 0.0 2.0 0.00 0.07 0.00 78 1015.7
20260831053111 72 45 0.0 2.0 0.00 0.07 0.00 78 1015.7
20260831053015 72 45 0.0 2.0 0.00 0.07 0.00 78 1015.7
20260831052504 72 224 0.0 2.0 0.00 0.07 0.00 78 1015.8
20260831052008 73 225 0.0 2.0 0.00 0.07 0.00 78 1015.9
20260831051602 73 0 0.0 1.0 0.00 0.07 0.00 78 1015.9
20260831051519 73 139 0.0 1.0 0.00 0.07 0.00 78 1015.9
20260831051007 73 250 0.0 1.0 0.00 0.07 0.00 78 1015.9
20260831050511 73 131 0.0 2.0 0.00 0.07 0.00 77 1015.9
20260831050118 73 243 0.0 2.0 0.00 0.07 0.00 77 1015.8
20260831050027 73 251 0.0 2.0 0.00 0.07 0.00 77 1015.8
20260831045513 73 58 0.0 1.0 0.00 0.07 0.07 77 1015.7
20260831045012 73 136 0.0 1.0 0.00 0.07 0.07 77 1015.7
20260831044602 73 227 0.0 2.0 0.00 0.07 0.07 77 1015.8
20260831044531 73 224 0.0 1.0 0.00 0.07 0.07 77 1015.7
20260831044014 73 154 0.0 2.0 0.00 0.07 0.07 77 1015.7
20260831043519 73 273 0.0 2.0 0.00 0.07 0.07 77 1015.7
20260831043103 73 77 0.0 2.0 0.00 0.07 0.07 78 1015.7
20260831043034 73 219 0.0 2.0 0.00 0.07 0.07 78 1015.8
20260831042518 73 158 0.0 2.0 0.00 0.07 0.07 77 1015.8
20260831042004 73 339 0.0 1.0 0.00 0.07 0.07 78 1015.9
20260831041606 73 0 0.0 1.0 0.00 0.07 0.07 78 1016.0
20260831041516 73 213 0.0 1.0 0.00 0.07 0.07 78 1015.9
20260831041008 73 153 0.0 1.0 0.00 0.07 0.07 78 1015.9
20260831040508 73 219 0.0 1.0 0.00 0.07 0.07 78 1015.9
20260831040106 73 153 0.0 1.0 0.00 0.07 0.07 78 1015.9
20260831040026 73 153 0.0 1.0 0.00 0.07 0.07 78 1015.8
20260831035510 73 162 0.0 1.0 0.00 0.07 0.07 78 1015.8
20260831035009 73 204 0.0 1.0 0.00 0.07 0.07 78 1015.8
20260831034612 73 0 0.0 2.0 0.00 0.07 0.07 79 1015.8
20260831034526 73 278 0.0 1.0 0.00 0.07 0.07 78 1015.8
20260831034015 73 269 0.0 2.0 0.00 0.07 0.07 79 1015.8
20260831033513 73 212 0.0 2.0 0.00 0.07 0.07 79 1015.8
20260831033107 72 174 0.0 2.0 0.00 0.07 0.07 81 1015.8
20260831033031 72 174 0.0 2.0 0.00 0.07 0.07 81 1015.8
20260831032516 72 212 0.0 2.0 0.00 0.07 0.07 82 1015.8
20260831032014 72 171 0.0 2.0 0.00 0.07 0.07 83 1015.9
20260831031605 72 153 0.0 2.0 0.00 0.07 0.07 84 1015.9
20260831031540 71 153 0.0 2.0 0.00 0.07 0.07 84 1016.0
20260831031013 71 148 0.0 1.0 0.00 0.07 0.07 86 1016.0
20260831030507 71 178 0.0 1.0 0.00 0.07 0.07 87 1016.0
20260831030106 71 0 0.0 1.0 0.00 0.07 0.07 88 1016.0
20260831030017 71 178 0.0 1.0 0.00 0.07 0.07 88 1015.9
20260831025510 71 102 0.0 1.0 0.00 0.07 0.07 89 1015.7
20260831025011 71 91 0.0 2.0 0.00 0.07 0.07 90 1015.9
20260831024603 71 96 0.0 2.0 0.00 0.07 0.07 90 1016.0
20260831024521 71 96 0.0 2.0 0.00 0.07 0.07 90 1016.0
20260831024012 71 86 0.0 1.0 0.00 0.07 0.07 90 1016.2
20260831023512 71 83 0.0 2.0 0.00 0.07 0.07 90 1016.3
20260831023110 71 83 0.0 2.0 0.00 0.07 0.07 90 1016.3
20260831023029 71 83 0.0 2.0 0.00 0.07 0.07 90 1016.3
20260831022513 71 84 0.0 1.0 0.00 0.07 0.07 90 1016.2
20260831022003 71 84 0.0 0.0 0.00 0.07 0.07 90 1016.2
20260831021607 71 0 0.0 0.0 0.00 0.07 0.07 90 1016.2
20260831021508 71 84 0.0 0.0 0.00 0.07 0.07 90 1016.2
20260831021004 72 84 0.0 0.0 0.00 0.07 0.07 90 1016.1
20260831020505 72 84 0.0 0.0 0.00 0.07 0.07 89 1016.1
20260831020109 72 0 0.0 0.0 0.00 0.07 0.07 89 1016.0
20260831020014 72 84 0.0 0.0 0.00 0.07 0.07 88 1016.0
20260831015508 73 84 0.0 0.0 0.00 0.07 0.07 87 1015.9
20260831015008 73 84 0.0 0.0 0.00 0.07 0.07 87 1016.0
20260831014626 73 0 0.0 0.0 0.00 0.07 0.07 86 1015.8
20260831014518 73 84 0.0 0.0 0.00 0.07 0.07 86 1015.8
20260831014014 74 84 0.0 0.0 0.00 0.07 0.07 86 1015.8
20260831013511 74 84 0.0 0.0 0.00 0.07 0.07 85 1016.0
20260831013107 74 0 0.0 0.0 0.00 0.07 0.07 86 1015.9
20260831013025 74 84 0.0 0.0 0.00 0.07 0.07 86 1016.0
20260831012512 75 84 0.0 0.0 0.00 0.07 0.07 86 1015.9
20260831012014 75 84 0.0 0.0 0.00 0.07 0.07 85 1015.9
20260831011605 75 0 0.0 1.0 0.00 0.07 0.07 85 1015.7
20260831011530 75 84 0.0 1.0 0.00 0.07 0.07 85 1015.8
20260831011015 75 84 0.0 1.0 0.00 0.07 0.07 85 1015.8
20260831010504 75 84 1.0 1.0 0.00 0.07 0.07 86 1015.6
20260831010109 75 96 0.0 1.0 0.00 0.07 0.07 86 1015.4
20260831010009 75 90 0.0 1.0 0.00 0.07 0.07 86 1015.5
20260831004605 76 0 0.0 1.0 0.00 0.07 0.07 86 1015.4
20260831004515 76 96 0.0 1.0 0.00 0.07 0.07 86 1015.5
20260831004010 76 96 0.0 1.0 0.00 0.07 0.07 85 1015.5
20260831003509 77 101 0.0 1.0 0.00 0.07 0.07 84 1015.6
20260831003107 77 102 0.0 1.0 0.00 0.07 0.07 84 1015.6
20260831003023 77 101 0.0 1.0 0.00 0.07 0.07 83 1015.7
20260831002510 78 101 0.0 0.0 0.00 0.07 0.07 82 1015.8
20260831002012 78 103 0.0 0.0 0.00 0.07 0.07 80 1015.8
20260831001620 78 0 0.0 0.0 0.00 0.07 0.07 80 1015.7
20260831001527 78 205 0.0 0.0 0.00 0.07 0.07 79 1015.8
20260831001015 79 205 0.0 0.0 0.00 0.07 0.07 78 1015.8
20260831000516 79 205 0.0 1.0 0.00 0.07 0.07 77 1015.8
20260831000110 79 0 0.0 1.0 0.00 0.07 0.07 75 1015.7
20260831000035 79 205 0.0 1.0 0.00 0.07 0.07 75 1015.8
20260830235513 80 210 0.0 1.0 0.00 0.07 0.07 75 1015.7
20260830235005 80 210 0.0 0.0 0.00 0.07 0.07 74 1015.8
20260830234613 81 0 0.0 0.0 0.00 0.07 0.07 74 1015.7
20260830234522 81 228 0.0 0.0 0.00 0.07 0.07 74 1015.8
20260830234005 81 228 0.0 0.0 0.00 0.07 0.07 73 1015.8
20260830233508 82 228 0.0 0.0 0.00 0.07 0.07 72 1015.8
20260830233133 83 0 0.0 1.0 0.00 0.07 0.07 71 1015.8
20260830233017 83 228 0.0 1.0 0.00 0.07 0.07 70 1015.9
20260830232511 84 229 0.0 1.0 0.00 0.07 0.07 68 1015.8
20260830232015 85 227 0.0 0.0 0.00 0.07 0.07 67 1015.8
20260830231605 85 0 0.0 1.0 0.00 0.07 0.07 66 1015.8
20260830231524 85 304 0.0 1.0 0.00 0.07 0.07 66 1015.8
20260830231015 86 304 0.0 1.0 0.00 0.07 0.07 65 1015.8
20260830230511 86 262 0.0 1.0 0.00 0.07 0.07 65 1015.8
20260830230120 86 0 0.0 1.0 0.00 0.07 0.07 65 1015.7
20260830230031 86 205 0.0 1.0 0.00 0.07 0.07 66 1015.8
20260830225513 86 262 0.0 1.0 0.00 0.07 0.07 65 1015.8
20260830225016 86 151 0.0 2.0 0.00 0.07 0.07 66 1015.7
20260830224601 85 0 0.0 2.0 0.00 0.07 0.07 69 1015.7
20260830224531 85 222 0.0 2.0 0.00 0.07 0.07 68 1015.7
20260830224015 85 195 0.0 1.0 0.00 0.07 0.07 68 1015.6
20260830223504 84 243 0.0 1.0 0.00 0.07 0.07 70 1015.7
20260830223104 84 0 0.0 1.0 0.00 0.07 0.07 69 1015.8
20260830223016 84 239 0.0 1.0 0.00 0.07 0.07 70 1015.8
20260830222507 84 254 0.0 1.0 0.00 0.07 0.07 67 1015.8
20260830222012 84 198 0.0 1.0 0.00 0.07 0.07 67 1015.6
20260830221610 84 196 0.0 2.0 0.00 0.07 0.07 68 1015.5
20260830221529 84 202 0.0 2.0 0.00 0.07 0.07 69 1015.5
20260830221010 83 256 0.0 4.0 0.00 0.07 0.07 68 1015.3
20260830220510 83 243 1.0 4.0 0.00 0.07 0.07 68 1015.2
20260830220109 83 242 1.0 4.0 0.00 0.07 0.07 69 1015.2
20260830220030 83 207 1.0 4.0 0.00 0.07 0.07 68 1015.1
20260830215512 84 6 1.0 5.0 0.00 0.07 0.07 69 1014.9
20260830215014 84 174 2.0 5.0 0.00 0.07 0.07 68 1015.0
20260830214606 84 56 2.0 5.0 0.00 0.07 0.07 67 1015.0
20260830214530 84 141 2.0 5.0 0.00 0.07 0.07 67 1015.0
20260830214013 84 317 1.0 5.0 0.00 0.07 0.07 68 1015.0
20260830213516 85 290 2.0 5.0 0.00 0.07 0.07 67 1014.9
20260830213103 85 130 2.0 5.0 0.00 0.07 0.07 67 1015.0
20260830213030 85 226 2.0 5.0 0.00 0.07 0.07 67 1014.9
20260830212519 85 283 2.0 5.0 0.00 0.07 0.07 70 1014.9
20260830212008 84 272 2.0 5.0 0.00 0.07 0.07 69 1014.9
20260830211603 84 285 1.0 4.0 0.00 0.07 0.07 68 1015.0
20260830211515 84 52 1.0 4.0 0.00 0.07 0.07 68 1015.0
20260830211008 84 254 2.0 4.0 0.00 0.07 0.07 69 1015.0
20260830210509 84 120 1.0 4.0 0.00 0.07 0.07 71 1015.1
20260830210106 84 165 1.0 4.0 0.00 0.07 0.07 71 1015.3
20260830210027 84 62 1.0 4.0 0.00 0.07 0.07 72 1015.3
20260830205512 84 292 1.0 3.0 0.00 0.07 0.07 72 1015.5
20260830205011 84 139 1.0 3.0 0.00 0.07 0.07 72 1015.6
20260830204606 84 221 1.0 4.0 0.00 0.07 0.07 71 1015.8
20260830204536 84 214 1.0 3.0 0.00 0.07 0.07 71 1015.7
20260830204014 84 145 1.0 4.0 0.00 0.07 0.07 72 1015.7
20260830203516 84 225 2.0 4.0 0.00 0.07 0.07 69 1015.8
20260830203104 85 276 1.0 6.0 0.00 0.07 0.07 68 1015.7
20260830203038 85 313 1.0 4.0 0.00 0.07 0.07 68 1015.8
20260830202514 85 258 2.0 6.0 0.00 0.07 0.07 67 1015.7
20260830202016 85 71 2.0 6.0 0.00 0.07 0.07 65 1015.8
20260830201606 86 40 2.0 5.0 0.00 0.07 0.07 66 1015.7
20260830201532 86 41 2.0 5.0 0.00 0.07 0.07 65 1015.8
20260830201015 86 314 2.0 6.0 0.00 0.07 0.07 65 1015.9
20260830200508 86 273 1.0 6.0 0.00 0.07 0.07 67 1015.9
20260830200029 86 310 2.0 5.0 0.00 0.07 0.07 68 1016.0
20260830195509 86 271 2.0 5.0 0.00 0.07 0.07 67 1015.9
20260830195008 86 216 2.0 5.0 0.00 0.07 0.07 70 1015.9
20260830194616 85 337 2.0 4.0 0.00 0.07 0.07 71 1016.0
20260830194525 85 286 2.0 4.0 0.00 0.07 0.07 70 1015.9
20260830194015 85 154 2.0 4.0 0.00 0.07 0.07 71 1016.0
20260830193512 85 188 1.0 4.0 0.00 0.07 0.07 71 1016.0
20260830193102 84 234 1.0 5.0 0.00 0.07 0.07 72 1016.1
20260830193030 84 288 1.0 5.0 0.00 0.07 0.07 72 1016.0
20260830192515 84 123 1.0 5.0 0.00 0.07 0.07 74 1016.0
20260830192016 84 90 1.0 3.0 0.00 0.07 0.07 74 1016.0
20260830191605 83 269 1.0 5.0 0.00 0.07 0.07 75 1016.1
20260830191534 83 12 0.0 5.0 0.00 0.07 0.07 75 1016.1
20260830191017 83 245 1.0 5.0 0.00 0.07 0.07 74 1016.2
20260830190519 83 218 1.0 5.0 0.00 0.07 0.07 74 1016.2
20260830190104 82 262 1.0 5.0 0.00 0.07 0.07 73 1016.2
20260830190032 82 170 1.0 5.0 0.00 0.07 0.07 73 1016.2
20260830185508 82 146 1.0 4.0 0.00 0.07 0.07 74 1016.3
20260830185007 82 93 2.0 4.0 0.00 0.07 0.07 74 1016.3
20260830184605 82 128 1.0 4.0 0.00 0.07 0.07 75 1016.3
20260830184524 82 143 2.0 4.0 0.00 0.07 0.07 75 1016.3
20260830184009 82 305 1.0 4.0 0.00 0.07 0.07 74 1016.4
20260830183511 82 225 1.0 4.0 0.00 0.07 0.07 74 1016.4
20260830183109 82 274 1.0 3.0 0.00 0.07 0.07 74 1016.6
20260830183028 82 172 1.0 3.0 0.00 0.07 0.07 74 1016.5
20260830182513 82 318 1.0 5.0 0.00 0.07 0.07 73 1016.6
20260830182015 83 108 2.0 5.0 0.00 0.07 0.07 73 1016.7
20260830181601 83 170 1.0 4.0 0.00 0.07 0.07 74 1016.8
20260830181530 83 226 1.0 4.0 0.00 0.07 0.07 74 1016.7
20260830181014 82 210 2.0 6.0 0.00 0.07 0.07 73 1016.7
20260830180518 82 266 2.0 6.0 0.00 0.07 0.07 72 1016.8
20260830180105 82 285 1.0 5.0 0.00 0.07 0.07 74 1017.0
20260830180048 82 314 1.0 5.0 0.00 0.07 0.07 74 1016.8
20260830175518 82 188 2.0 5.0 0.00 0.07 0.07 73 1016.9
20260830175020 82 285 2.0 6.0 0.00 0.07 0.07 72 1016.9
20260830174616 83 319 3.0 6.0 0.00 0.07 0.07 71 1017.0
20260830174534 83 255 3.0 6.0 0.00 0.07 0.07 70 1017.0
20260830174008 83 204 3.0 6.0 0.00 0.07 0.07 72 1017.1
20260830173510 83 290 2.0 5.0 0.00 0.07 0.07 75 1017.2
20260830173105 83 259 2.0 5.0 0.00 0.07 0.07 75 1017.3
20260830173016 83 324 2.0 5.0 0.00 0.07 0.07 75 1017.4
20260830172506 82 297 2.0 5.0 0.00 0.07 0.07 77 1017.4
20260830172006 81 266 2.0 4.0 0.00 0.07 0.07 77 1017.4
20260830171607 81 210 2.0 5.0 0.00 0.07 0.07 77 1017.4
20260830171506 80 237 2.0 5.0 0.00 0.07 0.07 77 1017.5
20260830171004 79 250 2.0 6.0 0.00 0.07 0.07 80 1017.6
20260830170504 79 279 2.0 6.0 0.00 0.07 0.07 78 1017.6
20260830170108 78 311 2.0 5.0 0.00 0.07 0.07 78 1017.7
20260830170008 78 231 1.0 5.0 0.00 0.07 0.07 78 1017.8
20260830165503 78 265 2.0 4.0 0.00 0.07 0.07 77 1017.8
20260830165003 78 299 1.0 4.0 0.00 0.07 0.07 76 1017.9
20260830164605 78 264 2.0 5.0 0.00 0.07 0.07 76 1017.9
20260830164536 79 295 2.0 4.0 0.00 0.07 0.07 76 1018.0
20260830164008 79 268 2.0 5.0 0.00 0.07 0.07 76 1018.0
20260830163506 79 233 3.0 6.0 0.00 0.07 0.07 74 1018.0
20260830163108 79 263 3.0 6.0 0.00 0.07 0.07 75 1017.9
20260830163018 79 252 3.0 6.0 0.00 0.07 0.07 75 1018.0
20260830162510 79 294 3.0 5.0 0.00 0.07 0.07 78 1017.8
20260830162009 79 292 2.0 4.0 0.00 0.07 0.07 79 1017.8
20260830161606 79 255 2.0 4.0 0.00 0.07 0.07 79 1017.7
20260830161519 79 316 2.0 4.0 0.00 0.07 0.07 80 1017.8
20260830161004 78 297 1.0 4.0 0.00 0.07 0.07 80 1017.8
20260830160503 77 294 2.0 5.0 0.00 0.07 0.07 78 1017.7
20260830160117 77 245 2.0 5.0 0.00 0.07 0.07 78 1017.6
20260830160008 77 276 2.0 5.0 0.00 0.07 0.07 77 1017.6
20260830155503 77 237 2.0 5.0 0.00 0.07 0.07 78 1017.5
20260830155005 77 283 1.0 4.0 0.00 0.07 0.07 79 1017.4
20260830154610 77 245 2.0 5.0 0.00 0.07 0.07 79 1017.4
20260830154512 77 257 2.0 5.0 0.00 0.07 0.07 80 1017.3
20260830154005 77 283 1.0 5.0 0.00 0.07 0.07 80 1017.4
20260830153504 76 212 1.0 4.0 0.00 0.07 0.07 80 1017.3
20260830153124 76 117 1.0 4.0 0.00 0.07 0.07 80 1017.1
20260830153017 76 300 2.0 4.0 0.00 0.07 0.07 81 1017.0
20260830152506 76 248 1.0 4.0 0.00 0.07 0.07 82 1016.9
20260830152010 76 46 1.0 3.0 0.00 0.07 0.07 83 1017.0
20260830151610 75 241 1.0 5.0 0.00 0.07 0.07 83 1017.0
20260830151523 75 291 1.0 5.0 0.00 0.07 0.07 83 1017.0
20260830151012 75 299 1.0 5.0 0.00 0.07 0.07 83 1016.9
20260830150512 74 356 0.0 4.0 0.00 0.07 0.07 85 1016.9
20260830150121 74 211 1.0 4.0 0.00 0.07 0.07 86 1017.0
20260830150034 74 158 1.0 4.0 0.00 0.07 0.07 86 1017.0
20260830145505 74 228 1.0 2.0 0.00 0.07 0.07 86 1017.1
20260830145003 73 93 1.0 2.0 0.00 0.07 0.07 86 1017.2
20260830144619 73 229 0.0 2.0 0.01 0.07 0.07 87 1017.3
20260830144511 73 98 0.0 2.0 0.01 0.07 0.07 87 1017.3
20260830144003 73 131 0.0 1.0 0.02 0.07 0.07 89 1017.5
20260830143504 72 186 0.0 1.0 0.07 0.07 0.07 91 1017.8
20260830143103 72 0 0.0 1.0 0.07 0.07 0.07 91 1017.8
20260830143013 72 124 0.0 1.0 0.07 0.07 0.07 91 1017.8
20260830142509 71 96 0.0 1.0 0.07 0.07 0.07 91 1017.9
20260830142008 71 96 0.0 1.0 0.07 0.07 0.07 90 1018.0
20260830141609 71 0 0.0 1.0 0.07 0.07 0.07 91 1018.1
20260830141517 71 96 0.0 1.0 0.07 0.07 0.07 90 1018.1
20260830141011 70 111 0.0 1.0 0.07 0.07 0.07 90 1018.0
20260830140515 70 150 0.0 1.0 0.07 0.07 0.07 89 1018.0
20260830140108 70 124 0.0 1.0 0.07 0.07 0.07 89 1018.0
20260830140023 70 124 0.0 1.0 0.07 0.07 0.07 89 1018.0
20260830135514 70 188 0.0 1.0 0.07 0.07 0.07 88 1018.1
20260830135011 70 258 0.0 1.0 0.07 0.07 0.07 87 1018.1
20260830134608 71 0 0.0 1.0 0.06 0.06 0.06 86 1018.1
20260830134527 71 258 0.0 1.0 0.06 0.06 0.06 86 1018.1
20260830134003 71 261 0.0 1.0 0.05 0.05 0.05 85 1018.1
20260830133505 71 269 0.0 2.0 0.00 0.00 0.00 84 1018.0
20260830133105 71 0 0.0 2.0 0.00 0.00 0.00 83 1017.7
20260830133014 71 262 0.0 2.0 0.00 0.00 0.00 83 1017.8
20260830132504 71 311 0.0 3.0 0.00 0.00 0.00 84 1017.6
20260830132007 71 271 0.0 3.0 0.00 0.00 0.00 84 1017.4
20260830131607 71 260 1.0 4.0 0.00 0.00 0.00 84 1017.3
20260830131523 71 283 1.0 4.0 0.00 0.00 0.00 84 1017.2
20260830131008 71 223 1.0 4.0 0.00 0.00 0.00 84 1017.1
20260830130509 70 277 1.0 4.0 0.00 0.00 0.00 84 1017.1
20260830130109 70 282 1.0 3.0 0.00 0.00 0.00 84 1017.1
20260830130025 70 302 1.0 2.0 0.00 0.00 0.00 84 1017.0
20260830125511 70 271 1.0 3.0 0.00 0.00 0.00 84 1017.1
20260830125010 70 284 1.0 3.0 0.00 0.00 0.00 83 1017.0
20260830124600 70 296 1.0 4.0 0.00 0.00 0.00 84 1016.9
20260830124527 70 242 1.0 4.0 0.00 0.00 0.00 84 1016.9
20260830124012 70 271 1.0 4.0 0.00 0.00 0.00 84 1016.8
20260830123515 70 282 1.0 3.0 0.00 0.00 0.00 84 1016.8
20260830123109 70 233 1.0 3.0 0.00 0.00 0.00 84 1016.6
20260830123028 70 283 1.0 3.0 0.00 0.00 0.00 84 1016.7
20260830122504 70 307 1.0 4.0 0.00 0.00 0.00 84 1016.6
20260830122004 70 281 1.0 4.0 0.00 0.00 0.00 84 1016.6
20260830121607 69 270 2.0 4.0 0.00 0.00 0.00 85 1016.3
20260830121513 69 210 2.0 4.0 0.00 0.00 0.00 85 1016.4
20260830121007 69 291 2.0 4.0 0.00 0.00 0.00 85 1016.4
20260830120508 69 288 1.0 3.0 0.00 0.00 0.00 85 1016.3
20260830120108 69 243 1.0 3.0 0.00 0.00 0.00 85 1016.2
20260830120020 69 293 1.0 3.0 0.00 0.00 0.00 85 1016.4
20260830115508 69 209 0.0 4.0 0.00 0.00 0.00 85 1016.3
20260830115013 69 338 1.0 4.0 0.00 0.00 0.00 85 1016.4
20260830114614 70 224 1.0 4.0 0.00 0.00 0.00 84 1016.2
20260830114525 70 109 1.0 4.0 0.00 0.00 0.00 84 1016.3
20260830114013 70 333 2.0 4.0 0.00 0.00 0.00 84 1016.3
20260830113513 70 170 2.0 4.0 0.00 0.00 0.00 83 1016.2
20260830113103 70 266 2.0 4.0 0.00 0.00 0.00 83 1016.2
20260830113029 70 269 2.0 4.0 0.00 0.00 0.00 83 1016.2
20260830112512 69 290 1.0 4.0 0.00 0.00 0.00 84 1016.1
20260830112014 69 154 2.0 4.0 0.00 0.00 0.00 84 1016.0
20260830111603 69 229 1.0 4.0 0.00 0.00 0.00 85 1015.9
20260830111528 69 284 1.0 4.0 0.00 0.00 0.00 85 1016.0
20260830111006 69 302 2.0 4.0 0.00 0.00 0.00 85 1016.0
20260830110504 69 235 1.0 4.0 0.00 0.00 0.00 85 1015.9
20260830110112 69 65 1.0 4.0 0.00 0.00 0.00 85 1015.9
20260830110018 69 96 2.0 4.0 0.00 0.00 0.00 85 1015.9
20260830105507 69 264 1.0 4.0 0.00 0.00 0.00 85 1016.0
20260830105007 69 277 1.0 4.0 0.00 0.00 0.00 85 1016.0
20260830104609 69 280 1.0 4.0 0.00 0.00 0.00 85 1016.0
20260830104519 69 141 1.0 4.0 0.00 0.00 0.00 85 1016.0
20260830104011 69 243 1.0 4.0 0.00 0.00 0.00 85 1016.1
20260830103512 69 273 1.0 4.0 0.00 0.00 0.00 85 1016.1
20260830103102 69 295 1.0 4.0 0.00 0.00 0.00 85 1016.1
20260830103028 69 280 1.0 4.0 0.00 0.00 0.00 85 1016.2
20260830102512 69 273 1.0 4.0 0.00 0.00 0.00 85 1016.1
20260830102014 69 296 1.0 4.0 0.00 0.00 0.00 85 1016.2
20260830101604 69 226 1.0 3.0 0.00 0.00 0.00 85 1016.1
20260830101530 69 219 1.0 3.0 0.00 0.00 0.00 85 1016.2
20260830101018 69 264 1.0 3.0 0.00 0.00 0.00 85 1016.2
20260830100514 69 285 1.0 3.0 0.00 0.00 0.00 85 1016.2
20260830100105 69 259 1.0 4.0 0.00 0.00 0.00 85 1016.0
20260830100033 69 291 1.0 4.0 0.00 0.00 0.00 85 1016.1
20260830095507 69 288 1.0 4.0 0.00 0.00 0.00 86 1016.1
20260830095007 69 302 1.0 4.0 0.00 0.00 0.00 86 1016.2